Observation Tools

American linden Photo courtesy of D.E. Herman, USDA-NRCS PLANTS Database.

American linden (Tilia americana)


Also Known As: Basswood, Lime tree
Plant Family: Linden (Tiliaceae)
Project BudBurst Plant Group: Deciduous Trees and Shrubs

Identification Hints: Lindens, also known as basswoods, are highly prized ornamental trees with soft heart-shaped leaves with fine teeth on the leaf margins, uneven bases and fragrant yellow flowers. The American linden has large hairless leaves and hairless flower stalks as contrasted with the southern basswoods (Carolina basswood (T. caroliniana), white basswood (T. heterophylla)). The Florida basswood (T. floridana) has silvery undersides to the leaves. Three European species are common ornamentals: small leaved linden (T. cordata) which has small round leaves 2.5 to 6 cm (1 to 2.5 in) and whitish undersides (but small tufts of brown hairs), and the large-leaved lime (T. platyphyllos) with leaves 7.5 to 10 cm (3 to 4 in) long (but still smaller and more rounded than American linden) with fine short hairs on the under surface of the leaves.

Did you Know? Native Americans and settlers used the fibrous inner bark ("bast") as a source of fiber for rope, mats, fish nets, and baskets. Before the widespread availability of synthetics, American Linden was once the material choice for prosthetic limbs. It is still valued for its soft, light, easily worked wood, especially for turned items and hand carving.


Live Map for American linden

Other years available for viewing:

Below you can view all observations that have been reported in for American linden (If the map below is empty then there have not been any observations reported.)

Use the navigation buttons on the left to zoom in/out and pan around. Click on each place marker to get detail information about that observation.

Leaf/Needles/Stalk = Leaf/Needles/Stalk Flower = Flower Pollen = Pollen Fruiting = Fruiting Color = Color

--Back to Top--

close help window button

The table below displays all the data that has been submitted to Project BudBurst. By default, the data is sorted by the date on which the phenophase occurred. Clicking the up and down arrows next to each column name allows you to sort on any value. If there have been more than 10 observations submitted, you can choose how many to display at a time using the "Show __ entries" control. You can also page through the data using the previous and next buttons at the bottom right of the table.

The Search box allows you to search all of the data. Searching by date, species, phenophase, etc. is easy—just start typing and the table will immediately change to contain only observations that contain your search phrase. Do you want to see only 2012 observations? Just type "2012" in the search box. Only want to see maples? Enter "Acer." You can combine searches, too! Searching for "acer 2012" will narrow your results to only the maples that were observed in 2012 (assuming that any observations exist, of course).

Once you have your results in the order desired, you can use any of the buttons above the search box to copy the results to the clipboard; save them as a text, or spreadsheet; or even print them from your browser!

Observational data for American linden:

help button
Date Contributor Common Name Species Phenophase Latitude Longitude Obs#
Fri Apr 25 00:00:00 GMT 2008 wheelerschool American linden Tilia americana First Leaf 41.829500000000000 -71.398400000000000 2278
Tue Apr 22 00:00:00 GMT 2008 mspoliner American linden Tilia americana First Leaf 40.766200000000000 -73.659300000000000 2324
Thu Apr 24 00:00:00 GMT 2008 hprice American linden Tilia americana First Leaf 41.684200000000000 -86.247200000000000 2406
Sat Apr 19 00:00:00 GMT 2008 hprice American linden Tilia americana First Flower 41.684200000000000 -86.247200000000000 2407
Tue Apr 22 00:00:00 GMT 2008 hprice American linden Tilia americana Full Flower 41.684200000000000 -86.247200000000000 2408
Sat May 03 00:00:00 GMT 2008 MENDOTA American linden Tilia americana First Leaf 41.564200000000000 -89.124400000000000 2756
Mon Apr 28 00:00:00 GMT 2008 leonard American linden Tilia americana First Leaf 39.984500000000000 -81.150000000000000 3119
Mon May 05 00:00:00 GMT 2008 leonard American linden Tilia americana All Leaves Unfolded 39.984500000000000 -81.150000000000000 3120
Sat May 10 00:00:00 GMT 2008 chrisj0727 American linden Tilia americana First Leaf 44.789600000000000 -93.111700000000000 3158
Tue Apr 29 00:00:00 GMT 2008 beedlow American linden Tilia americana First Leaf 44.567000000000000 -123.267000000000000 3477
Fri May 16 00:00:00 GMT 2008 chrisj0727 American linden Tilia americana All Leaves Unfolded 44.789600000000000 -93.111700000000000 3616
Sat May 03 00:00:00 GMT 2008 sfern American linden Tilia americana First Leaf 42.000500000000000 -87.674200000000000 3728
Thu May 15 00:00:00 GMT 2008 hankdort American linden Tilia americana First Leaf 47.341800000000000 -114.008000000000000 3984
Sun May 18 00:00:00 GMT 2008 hankdort American linden Tilia americana All Leaves Unfolded 47.341800000000000 -114.008000000000000 3985
Fri Apr 25 00:00:00 GMT 2008 vanndawn American linden Tilia americana First Leaf 38.996400000000000 -92.613100000000000 4360
Wed Jul 02 00:00:00 GMT 2008 chrisj0727 American linden Tilia americana First Flower 44.789600000000000 -93.111700000000000 4409
Sun Jul 06 00:00:00 GMT 2008 chrisj0727 American linden Tilia americana Full Flower 44.789600000000000 -93.111700000000000 4410
Tue Jul 15 00:00:00 GMT 2008 hankdort American linden Tilia americana First Flower 47.341800000000000 -114.008000000000000 4546
Fri Jul 18 00:00:00 GMT 2008 hankdort American linden Tilia americana Full Flower 47.341800000000000 -114.008000000000000 4547
Sat Feb 17 00:00:00 GMT 2007 anonymous American linden Tilia americana First Leaf 41.728300000000000 -88.098700000000000 5163
Wed Jun 20 00:00:00 GMT 2007 anonymous American linden Tilia americana All Leaves Unfolded 41.728300000000000 -88.098700000000000 5164
Fri Aug 07 00:00:00 GMT 2009 anonymous American linden Tilia americana 50% Color 41.728300000000000 -88.098700000000000 5165
Mon Oct 12 00:00:00 GMT 2009 anonymous American linden Tilia americana 50% Leaf Fall 41.728300000000000 -88.098700000000000 5166
Mon Apr 20 00:00:00 GMT 2009 zac American linden Tilia americana First Leaf 39.674800000000000 -104.965000000000000 6282
Sat May 02 00:00:00 GMT 2009 compobs American linden Tilia americana First Leaf 45.379400000000000 -93.076700000000000 6929
Mon May 04 00:00:00 GMT 2009 d_hrding American linden Tilia americana First Leaf 44.142700000000000 -71.182800000000000 6951
Fri May 08 00:00:00 GMT 2009 d_hrding American linden Tilia americana All Leaves Unfolded 44.142700000000000 -71.182800000000000 7241
Mon Apr 27 00:00:00 GMT 2009 anonymous American linden Tilia americana First Leaf 45.153700000000000 -93.353000000000000 7263
Tue May 05 00:00:00 GMT 2009 anonymous American linden Tilia americana All Leaves Unfolded 45.153700000000000 -93.353000000000000 7264
Mon May 04 00:00:00 GMT 2009 alexalabarge American linden Tilia americana First Leaf 39.000000000000000 -104.000000000000000 7316
Fri May 08 00:00:00 GMT 2009 alexalabarge American linden Tilia americana All Leaves Unfolded 39.000000000000000 -104.000000000000000 7317
Wed Apr 29 00:00:00 GMT 2009 saganwelch American linden Tilia americana First Leaf 39.677000000000000 -104.962000000000000 7399
Fri May 01 00:00:00 GMT 2009 saganwelch American linden Tilia americana All Leaves Unfolded 39.677000000000000 -104.962000000000000 7400
Sun May 10 00:00:00 GMT 2009 palaback American linden Tilia americana First Leaf 46.866700000000000 -113.983000000000000 7428
Sun Apr 26 00:00:00 GMT 2009 clehn American linden Tilia americana First Leaf 41.512000000000000 -81.610400000000000 7452
Wed Apr 29 00:00:00 GMT 2009 clehn American linden Tilia americana All Leaves Unfolded 41.512000000000000 -81.610400000000000 7453
Wed Apr 29 00:00:00 GMT 2009 872209154 American linden Tilia americana First Leaf 39.000000000000000 -104.000000000000000 7533
Wed Apr 29 00:00:00 GMT 2009 872209154 American linden Tilia americana All Leaves Unfolded 39.000000000000000 -104.000000000000000 7534
Wed May 06 00:00:00 GMT 2009 ryan.hustana@du.edu American linden Tilia americana First Leaf 39.000000000000000 -104.000000000000000 7607
Wed May 13 00:00:00 GMT 2009 ryan.hustana@du.edu American linden Tilia americana All Leaves Unfolded 39.000000000000000 -104.000000000000000 7608
Mon May 11 00:00:00 GMT 2009 ryan.hustana@du.edu American linden Tilia americana 50% Color 39.000000000000000 -104.000000000000000 7609
Fri May 08 00:00:00 GMT 2009 jennalindsayb American linden Tilia americana First Leaf 39.674500000000000 -104.962000000000000 7621
Fri May 15 00:00:00 GMT 2009 jennalindsayb American linden Tilia americana All Leaves Unfolded 39.674500000000000 -104.962000000000000 7622
Fri May 01 00:00:00 GMT 2009 ssulli40 American linden Tilia americana First Leaf 39.674800000000000 -104.964000000000000 7682
Wed May 06 00:00:00 GMT 2009 ssulli40 American linden Tilia americana All Leaves Unfolded 39.674800000000000 -104.964000000000000 7683
Fri May 08 00:00:00 GMT 2009 ssulli40 American linden Tilia americana 50% Color 39.674800000000000 -104.964000000000000 7684
Mon May 04 00:00:00 GMT 2009 historyswimmer66 American linden Tilia americana First Leaf 39.000000000000000 -104.000000000000000 7671
Mon May 18 00:00:00 GMT 2009 historyswimmer66 American linden Tilia americana All Leaves Unfolded 39.000000000000000 -104.000000000000000 7672
Thu Apr 30 00:00:00 GMT 2009 hotdesizzle American linden Tilia americana First Leaf 39.000000000000000 -104.000000000000000 7675
Tue May 05 00:00:00 GMT 2009 hotdesizzle American linden Tilia americana All Leaves Unfolded 39.000000000000000 -104.000000000000000 7676
Mon Apr 27 00:00:00 GMT 2009 anonymous American linden Tilia americana First Leaf 39.677000000000000 -104.962000000000000 7697
Fri May 01 00:00:00 GMT 2009 anonymous American linden Tilia americana All Leaves Unfolded 39.677000000000000 -104.962000000000000 7698
Mon May 11 00:00:00 GMT 2009 anonymous American linden Tilia americana 50% Leaf Fall 39.677000000000000 -104.962000000000000 7699
Fri May 08 00:00:00 GMT 2009 Corey American linden Tilia americana First Leaf 39.000000000000000 -104.000000000000000 7730
Mon May 11 00:00:00 GMT 2009 Corey American linden Tilia americana All Leaves Unfolded 39.000000000000000 -104.000000000000000 7731
Mon May 11 00:00:00 GMT 2009 caylaj American linden Tilia americana First Leaf 39.000000000000000 -104.000000000000000 7744
Wed May 13 00:00:00 GMT 2009 caylaj American linden Tilia americana All Leaves Unfolded 39.000000000000000 -104.000000000000000 7745
Tue May 05 00:00:00 GMT 2009 Brian.Baxter American linden Tilia americana First Leaf 39.000000000000000 -104.000000000000000 7787
Sat May 09 00:00:00 GMT 2009 Brian.Baxter American linden Tilia americana All Leaves Unfolded 39.000000000000000 -104.000000000000000 7788
Wed May 13 00:00:00 GMT 2009 Brian.Baxter American linden Tilia americana First Flower 39.000000000000000 -104.000000000000000 7789
Mon May 18 00:00:00 GMT 2009 Brian.Baxter American linden Tilia americana Full Flower 39.000000000000000 -104.000000000000000 7790
Thu Jan 29 00:00:00 GMT 2009 david.phillips@du.edu American linden Tilia americana First Leaf 39.000000000000000 -104.000000000000000 7807
Fri May 01 00:00:00 GMT 2009 david.phillips@du.edu American linden Tilia americana All Leaves Unfolded 39.000000000000000 -104.000000000000000 7808
Fri May 08 00:00:00 GMT 2009 csoucy625 American linden Tilia americana First Leaf 39.674200000000000 -104.962000000000000 7823
Wed May 13 00:00:00 GMT 2009 csoucy625 American linden Tilia americana All Leaves Unfolded 39.674200000000000 -104.962000000000000 7824
Wed Apr 22 00:00:00 GMT 2009 oompas American linden Tilia americana First Leaf 39.000000000000000 -104.000000000000000 7861
Mon Apr 27 00:00:00 GMT 2009 oompas American linden Tilia americana All Leaves Unfolded 39.000000000000000 -104.000000000000000 7862
Fri May 01 00:00:00 GMT 2009 Brian.Baxter American linden Tilia americana 50% Color 39.000000000000000 -104.000000000000000 7888
Fri May 15 00:00:00 GMT 2009 Brian.Baxter American linden Tilia americana First Ripe Fruit 39.000000000000000 -104.000000000000000 7890
Sun Jan 25 00:00:00 GMT 2009 dansan American linden Tilia americana First Leaf 39.674900000000000 -104.965000000000000 7786
Fri Apr 17 00:00:00 GMT 2009 agolnar American linden Tilia americana First Leaf 39.000000000000000 -104.000000000000000 7904
Mon Apr 27 00:00:00 GMT 2009 agolnar American linden Tilia americana All Leaves Unfolded 39.000000000000000 -104.000000000000000 7905
Mon May 04 00:00:00 GMT 2009 Peleverrin American linden Tilia americana First Leaf 39.000000000000000 -104.000000000000000 7894
Wed May 06 00:00:00 GMT 2009 Peleverrin American linden Tilia americana All Leaves Unfolded 39.000000000000000 -104.000000000000000 7895
Mon May 04 00:00:00 GMT 2009 Peleverrin American linden Tilia americana 50% Color 39.000000000000000 -104.000000000000000 7896
Wed May 06 00:00:00 GMT 2009 Lab3Phenology American linden Tilia americana First Leaf 39.000000000000000 -104.000000000000000 7936
Sat May 09 00:00:00 GMT 2009 Lab3Phenology American linden Tilia americana All Leaves Unfolded 39.000000000000000 -104.000000000000000 7937
Wed May 06 00:00:00 GMT 2009 anonymous American linden Tilia americana First Leaf 39.400000000000000 -104.570000000000000 7930
Mon May 18 00:00:00 GMT 2009 anonymous American linden Tilia americana All Leaves Unfolded 39.400000000000000 -104.570000000000000 7931
Wed May 06 00:00:00 GMT 2009 athiros@du.edu American linden Tilia americana First Leaf 39.676200000000000 -104.965000000000000 7906
Mon May 11 00:00:00 GMT 2009 athiros@du.edu American linden Tilia americana All Leaves Unfolded 39.676200000000000 -104.965000000000000 7907
Fri May 08 00:00:00 GMT 2009 KelseyJMcC American linden Tilia americana First Leaf 39.000000000000000 -104.000000000000000 7910
Sat May 09 00:00:00 GMT 2009 KelseyJMcC American linden Tilia americana All Leaves Unfolded 39.000000000000000 -104.000000000000000 7911
Wed May 06 00:00:00 GMT 2009 tjhockey75 American linden Tilia americana First Leaf 39.667000000000000 -104.962000000000000 7971
Wed May 13 00:00:00 GMT 2009 tjhockey75 American linden Tilia americana All Leaves Unfolded 39.667000000000000 -104.962000000000000 7972
Fri May 08 00:00:00 GMT 2009 tjhockey75 American linden Tilia americana 50% Color 39.667000000000000 -104.962000000000000 7973
Wed May 06 00:00:00 GMT 2009 nickpisciotta American linden Tilia americana First Leaf 39.000000000000000 -104.000000000000000 7981
Sat May 09 00:00:00 GMT 2009 nickpisciotta American linden Tilia americana All Leaves Unfolded 39.000000000000000 -104.000000000000000 7982
Sun May 10 00:00:00 GMT 2009 nickpisciotta American linden Tilia americana 50% Color 39.000000000000000 -104.000000000000000 7983
Wed Apr 22 00:00:00 GMT 2009 megan.foley@du.edu American linden Tilia americana First Leaf 39.000000000000000 -104.000000000000000 7926
Fri May 01 00:00:00 GMT 2009 emilyjhuth American linden Tilia americana First Leaf 39.000000000000000 -104.000000000000000 7927
Wed May 06 00:00:00 GMT 2009 emilyjhuth American linden Tilia americana All Leaves Unfolded 39.000000000000000 -104.000000000000000 7928
Fri May 01 00:00:00 GMT 2009 emilyjhuth American linden Tilia americana 50% Color 39.000000000000000 -104.000000000000000 7929
Sat May 23 00:00:00 GMT 2009 palaback American linden Tilia americana All Leaves Unfolded 46.866700000000000 -113.983000000000000 8680
Mon Jul 13 00:00:00 GMT 2009 palaback American linden Tilia americana First Flower 46.866700000000000 -113.983000000000000 8681
Wed Sep 30 00:00:00 GMT 2009 palaback American linden Tilia americana 50% Color 46.866700000000000 -113.983000000000000 8682
Thu Oct 15 00:00:00 GMT 2009 anonymous American linden Tilia americana 50% Leaf Fall 44.475900000000000 -73.212100000000000 8768
Wed Nov 04 00:00:00 GMT 2009 Toniteatea American linden Tilia americana First Leaf 35.709300000000000 -86.395500000000000 8894
Wed Nov 04 00:00:00 GMT 2009 Toniteatea American linden Tilia americana First Leaf 35.709300000000000 -86.395500000000000 8893
Sat Oct 03 00:00:00 GMT 2009 goneback2u2 American linden Tilia americana 50% Color 35.781100000000000 -86.324700000000000 8914
Fri Oct 23 00:00:00 GMT 2009 anonymous American linden Tilia americana All Leaves Unfolded 45.120000000000000 -95.011300000000000 8923
Sat Apr 03 00:00:00 GMT 2010 Rich American linden Tilia americana First Flower 40.002400000000000 -80.650600000000000 9420
Tue Apr 06 00:00:00 GMT 2010 Rich American linden Tilia americana Full Flower 40.002400000000000 -80.650600000000000 9469
Tue Apr 06 00:00:00 GMT 2010 Rich American linden Tilia americana First Leaf 40.002400000000000 -80.650600000000000 9527
Mon Apr 12 00:00:00 GMT 2010 Rich American linden Tilia americana All Leaves Unfolded 40.002400000000000 -80.650600000000000 9528
Thu Apr 15 00:00:00 GMT 2010 Rich American linden Tilia americana End of Flowering 40.002400000000000 -80.650600000000000 9779
Mon Apr 05 00:00:00 GMT 2010 wtwinter American linden Tilia americana First Leaf 43.035300000000000 -76.236500000000000 10082
Tue Apr 13 00:00:00 GMT 2010 wtwinter American linden Tilia americana All Leaves Unfolded 43.035300000000000 -76.236500000000000 10083
Wed Apr 28 00:00:00 GMT 2010 Derek McKay American linden Tilia americana First Leaf 45.317400000000000 -92.158900000000000 10233
Wed May 05 00:00:00 GMT 2010 Derek McKay American linden Tilia americana All Leaves Unfolded 45.317400000000000 -92.158900000000000 10332
Fri May 07 00:00:00 GMT 2010 bill1b American linden Tilia americana First Leaf 39.924500000000000 -105.049000000000000 10498
Mon Oct 18 00:00:00 GMT 2010 Derek McKay American linden Tilia americana 50% Leaf Fall 45.317400000000000 -92.158900000000000 11338
Sun Oct 24 00:00:00 GMT 2010 palaback American linden Tilia americana 50% Leaf Fall 40.307500000000000 -105.084000000000000 11369
Mon Oct 11 00:00:00 GMT 2010 palaback American linden Tilia americana 50% Color 40.307500000000000 -105.084000000000000 11377
Mon Mar 21 00:00:00 GMT 2011 morris42 American linden Tilia americana First Leaf 39.184200000000000 -86.541000000000000 12075
Mon Apr 04 00:00:00 GMT 2011 morris42 American linden Tilia americana All Leaves Unfolded 39.184200000000000 -86.541000000000000 12076
Mon May 16 00:00:00 GMT 2011 Derek McKay American linden Tilia americana First Leaf 45.317400000000000 -92.158900000000000 12557
Fri May 20 00:00:00 GMT 2011 Derek McKay American linden Tilia americana All Leaves Unfolded 45.317400000000000 -92.158900000000000 12593
Sat Jun 04 00:00:00 GMT 2011 palaback American linden Tilia americana All Leaves Unfolded 40.307500000000000 -105.084000000000000 13014
Sun Jun 26 00:00:00 GMT 2011 palaback American linden Tilia americana First Flower 40.307500000000000 -105.084000000000000 13015
Sat Sep 17 00:00:00 GMT 2011 sandrah American linden Tilia americana Fruit (Late) 40.010000000000000 -105.260000000000000 13256
Sat Sep 17 00:00:00 GMT 2011 palaback American linden Tilia americana Leaves Changing Color (Early) 40.307500000000000 -105.084000000000000 13258
Mon Jul 04 00:00:00 GMT 2011 palaback American linden Tilia americana Full Flower 40.307500000000000 -105.084000000000000 13454
Tue Sep 27 00:00:00 GMT 2011 palaback American linden Tilia americana 50% Color 40.307500000000000 -105.084000000000000 13455
Thu Oct 13 00:00:00 GMT 2011 palaback American linden Tilia americana Leaves Changing Color (Late) 43.363500000000000 -72.094500000000000 13639
Thu Oct 13 00:00:00 GMT 2011 palaback American linden Tilia americana Leaves Dropping (Middle) 43.363500000000000 -72.094500000000000 13640
Tue Oct 11 00:00:00 GMT 2011 palaback American linden Tilia americana Leaves Changing Color (Middle) 43.402300000000000 -71.883500000000000 13623
Thu Oct 13 00:00:00 GMT 2011 palaback American linden Tilia americana Leaves Changing Color (Late) 43.363500000000000 -72.094500000000000 13682
Thu Oct 13 00:00:00 GMT 2011 palaback American linden Tilia americana Leaves Dropping (Middle) 43.363500000000000 -72.094500000000000 13683
Sat Oct 22 00:00:00 GMT 2011 palaback American linden Tilia americana 50% Leaf Fall 40.307500000000000 -105.084000000000000 13725
Sat Nov 12 00:00:00 GMT 2011 katherinefogarty@comcast.net_EnvSci2011_reporter1 American linden Tilia americana 50% Color 42.315800000000000 -71.083200000000000 13920
Sat Nov 12 00:00:00 GMT 2011 katherinefogarty@comcast.net_EnvSci2011_reporter1 American linden Tilia americana 50% Leaf Fall 42.315800000000000 -71.083200000000000 13921
Sat Mar 24 00:00:00 GMT 2012 zintc American linden Tilia americana First Leaf 40.699700000000000 -73.995000000000000 14461
Fri Mar 30 00:00:00 GMT 2012 sonyaguidry@yahoo.com American linden Tilia americana First Leaf 29.042400000000000 -80.939500000000000 14588
Tue Mar 27 00:00:00 GMT 2012 tuckerasso American linden Tilia americana First Leaf 37.231600000000000 -76.663600000000000 14708
Tue Apr 03 00:00:00 GMT 2012 zintc American linden Tilia americana All Leaves Unfolded 40.699700000000000 -73.995000000000000 14712
Tue Apr 03 00:00:00 GMT 2012 tuckerasso American linden Tilia americana All Leaves Unfolded 37.231600000000000 -76.663600000000000 14745
Thu Apr 12 00:00:00 GMT 2012 CoreyPalmer American linden Tilia americana Leaves Unfolding (Early) 42.149300000000000 -87.785500000000000 14938
Mon Apr 16 00:00:00 GMT 2012 kaoster American linden Tilia americana Leaves Unfolding (Middle) 44.476900000000000 -73.196500000000000 15033
Wed Apr 18 00:00:00 GMT 2012 CoreyPalmer American linden Tilia americana Leaves Unfolding (Middle) 42.149300000000000 -87.785500000000000 15080
Mon Apr 16 00:00:00 GMT 2012 bill1b American linden Tilia americana First Leaf 39.924500000000000 -105.049000000000000 15139
Wed Apr 25 00:00:00 GMT 2012 palaback American linden Tilia americana All Leaves Unfolded 40.307500000000000 -105.084000000000000 15375
Thu May 03 00:00:00 GMT 2012 CoreyPalmer American linden Tilia americana Leaves Unfolding (Late) 42.149300000000000 -87.785500000000000 15458
Wed May 09 00:00:00 GMT 2012 CoreyPalmer American linden Tilia americana Leaves Unfolding (Late) 42.149300000000000 -87.785500000000000 15570
Fri Dec 04 00:00:00 GMT 2015 katherinefogarty@comcast.net_EnvSci2011_reporter1 American linden Tilia americana First Leaf 42.315800000000000 -71.083200000000000 15546
Thu May 17 00:00:00 GMT 2012 katherinefogarty@comcast.net_EnvSci2011_reporter1 American linden Tilia americana All Leaves Unfolded 42.315800000000000 -71.083200000000000 15547
Wed Apr 25 00:00:00 GMT 2012 katherinefogarty@comcast.net_EnvSci2011_reporter1 American linden Tilia americana 50% Color 42.315800000000000 -71.083200000000000 15548
Sun May 13 00:00:00 GMT 2012 Rebeccapanko American linden Tilia americana Flowers (Middle) 40.669400000000000 -73.925200000000000 15597
Thu May 17 00:00:00 GMT 2012 CoreyPalmer American linden Tilia americana Leaves Unfolding (Late) 42.149300000000000 -87.785500000000000 15706
Mon Jun 18 00:00:00 GMT 2012 palaback American linden Tilia americana First Flower 40.307500000000000 -105.084000000000000 16070
Thu Jun 14 00:00:00 GMT 2012 victocam American linden Tilia americana Full Flower 40.667700000000000 -73.961800000000000 16071
Thu Jun 14 00:00:00 GMT 2012 victocam_Brooklyn_Homeschool_reporter2 American linden Tilia americana Full Flower 40.667700000000000 -73.961800000000000 16093
Sun Jun 24 00:00:00 GMT 2012 palaback American linden Tilia americana Full Flower 40.307500000000000 -105.084000000000000 16129
Sat May 19 00:00:00 GMT 2012 tuckerasso American linden Tilia americana First Flower 37.231600000000000 -76.663600000000000 16564
Fri May 25 00:00:00 GMT 2012 tuckerasso American linden Tilia americana Full Flower 37.231600000000000 -76.663600000000000 16565
Mon Sep 10 00:00:00 GMT 2012 sandrah American linden Tilia americana Fruit (Late) 43.038900000000000 -87.891600000000000 16577
Sat Oct 13 00:00:00 GMT 2012 PCILAINSLIE American linden Tilia americana 50% Leaf Fall 41.971000000000000 -87.700500000000000 17053
Sat Oct 20 00:00:00 GMT 2012 palaback American linden Tilia americana 50% Color 40.307500000000000 -105.084000000000000 17230
Sat Oct 27 00:00:00 GMT 2012 palaback American linden Tilia americana 50% Leaf Fall 40.307500000000000 -105.084000000000000 17231
Sun Nov 04 00:00:00 GMT 2012 squizzle-1 American linden Tilia americana 50% Leaf Fall 42.388900000000000 -71.149000000000000 17507
Tue Mar 27 00:00:00 GMT 2012 tuckerasso American linden Tilia americana First Leaf 37.231600000000000 -76.663600000000000 17642
Tue Apr 03 00:00:00 GMT 2012 tuckerasso American linden Tilia americana All Leaves Unfolded 37.231600000000000 -76.663600000000000 17643
Sat May 19 00:00:00 GMT 2012 tuckerasso American linden Tilia americana First Flower 37.231600000000000 -76.663600000000000 17644
Fri May 25 00:00:00 GMT 2012 tuckerasso American linden Tilia americana Full Flower 37.231600000000000 -76.663600000000000 17645
Tue Sep 11 00:00:00 GMT 2012 tuckerasso American linden Tilia americana First Ripe Fruit 37.231600000000000 -76.663600000000000 17646
Thu Oct 18 00:00:00 GMT 2012 tuckerasso American linden Tilia americana Full Fruiting 37.231600000000000 -76.663600000000000 17647
Thu Nov 15 00:00:00 GMT 2012 tuckerasso American linden Tilia americana 50% Color 37.231600000000000 -76.663600000000000 17648
Thu Jan 31 00:00:00 GMT 2013 steph2000 American linden Tilia americana Leaves Unfolding (Early) 42.597300000000000 -83.090700000000000 17933
Mon Apr 08 00:00:00 GMT 2013 zintc American linden Tilia americana Bud Burst 40.699700000000000 -73.995000000000000 19028
Fri Apr 12 00:00:00 GMT 2013 zintc American linden Tilia americana First Leaf 40.699700000000000 -73.995000000000000 19029
Fri Apr 19 00:00:00 GMT 2013 zintc American linden Tilia americana All Leaves Unfolded 40.699700000000000 -73.995000000000000 19030
Mon May 13 00:00:00 GMT 2013 JESD American linden Tilia americana Bud Burst 39.995900000000000 -105.095000000000000 20265
Tue May 14 00:00:00 GMT 2013 JayDee970 American linden Tilia americana Bud Burst 40.462100000000000 -105.036000000000000 20387
Tue May 14 00:00:00 GMT 2013 JESD American linden Tilia americana First Leaf 39.995900000000000 -105.095000000000000 20393
Fri May 17 00:00:00 GMT 2013 JayDee970 American linden Tilia americana First Leaf 40.462100000000000 -105.036000000000000 20487
Sun May 19 00:00:00 GMT 2013 JESD American linden Tilia americana All Leaves Unfolded 39.995900000000000 -105.095000000000000 20523
Mon May 20 00:00:00 GMT 2013 JayDee970 American linden Tilia americana All Leaves Unfolded 40.462100000000000 -105.036000000000000 20704
Tue Jun 18 00:00:00 GMT 2013 snewman14 American linden Tilia americana Flowers (Early) 40.016000000000000 -105.245000000000000 21215
Tue Jun 25 00:00:00 GMT 2013 JESD American linden Tilia americana First Flower 39.995900000000000 -105.095000000000000 21429
Sat Jun 29 00:00:00 GMT 2013 JESD American linden Tilia americana Full Flower 39.995900000000000 -105.095000000000000 21430
Mon Sep 23 00:00:00 GMT 2013 Budburstastor303 American linden Tilia americana First Ripe Fruit 42.045600000000000 -87.691100000000000 22822
Tue Oct 15 00:00:00 GMT 2013 Budburstastor303 American linden Tilia americana Full Fruiting 42.045600000000000 -87.691100000000000 22832
Tue Oct 29 00:00:00 GMT 2013 Budburstastor303 American linden Tilia americana 50% Color 42.045600000000000 -87.691100000000000 22833
Mon Nov 18 00:00:00 GMT 2013 kckorsta American linden Tilia americana Leaves Dropping (Late) 39.174900000000000 -86.515000000000000 23550
Sat Apr 13 00:00:00 GMT 2013 tuckerasso American linden Tilia americana All Leaves Unfolded 37.231600000000000 -76.663600000000000 24580
Sun Apr 28 00:00:00 GMT 2013 tuckerasso American linden Tilia americana First Flower 37.231600000000000 -76.663600000000000 24581
Sat May 04 00:00:00 GMT 2013 tuckerasso American linden Tilia americana Full Flower 37.231600000000000 -76.663600000000000 24582
Tue Sep 10 00:00:00 GMT 2013 tuckerasso American linden Tilia americana First Ripe Fruit 37.231600000000000 -76.663600000000000 24583
Mon Nov 25 00:00:00 GMT 2013 tuckerasso American linden Tilia americana Full Fruiting 37.231600000000000 -76.663600000000000 24584
Mon Nov 25 00:00:00 GMT 2013 tuckerasso American linden Tilia americana 50% Color 37.231600000000000 -76.663600000000000 24585
Mon Nov 25 00:00:00 GMT 2013 tuckerasso American linden Tilia americana 50% Leaf Fall 37.231600000000000 -76.663600000000000 24586
Mon May 06 00:00:00 GMT 2013 palaback American linden Tilia americana Leaves Unfolding (Late) 39.932600000000000 -75.213200000000000 24854
Mon May 06 00:00:00 GMT 2013 palaback American linden Tilia americana Leaves Changing Color (None) 39.932600000000000 -75.213200000000000 24855
Mon May 06 00:00:00 GMT 2013 palaback American linden Tilia americana Leaves Dropping (None) 39.932600000000000 -75.213200000000000 24856
Mon May 06 00:00:00 GMT 2013 palaback American linden Tilia americana Flowers (None) 39.932600000000000 -75.213200000000000 24857
Mon May 06 00:00:00 GMT 2013 palaback American linden Tilia americana Fruit (None) 39.932600000000000 -75.213200000000000 24858
Sun Apr 27 00:00:00 GMT 2014 JESD American linden Tilia americana Bud Burst 39.995900000000000 -105.095000000000000 30700
Mon Apr 28 00:00:00 GMT 2014 florulalouisvillensis American linden Tilia americana Leaves Unfolding (Late) 38.234438000000000 -85.684755000000000 30876
Mon Apr 28 00:00:00 GMT 2014 florulalouisvillensis American linden Tilia americana Leaves Changing Color (None) 38.234438000000000 -85.684755000000000 30877
Mon Apr 28 00:00:00 GMT 2014 florulalouisvillensis American linden Tilia americana Leaves Dropping (None) 38.234438000000000 -85.684755000000000 30878
Mon Apr 28 00:00:00 GMT 2014 florulalouisvillensis American linden Tilia americana Flowers (None) 38.234438000000000 -85.684755000000000 30879
Mon Apr 28 00:00:00 GMT 2014 florulalouisvillensis American linden Tilia americana Fruit (None) 38.234438000000000 -85.684755000000000 30880
Sat May 03 00:00:00 GMT 2014 JESD American linden Tilia americana First Leaf 39.995900000000000 -105.095000000000000 31485
Sun May 04 00:00:00 GMT 2014 pghbotanicgarden American linden Tilia americana Bud Burst 40.417200000000000 -80.169800000000000 31712
Tue May 20 00:00:00 GMT 2014 polis American linden Tilia americana Leaves Unfolding (Late) 38.887210000000000 -77.008500000000000 32617
Tue May 20 00:00:00 GMT 2014 polis American linden Tilia americana Leaves Changing Color (None) 38.887210000000000 -77.008500000000000 32618
Tue May 20 00:00:00 GMT 2014 polis American linden Tilia americana Leaves Dropping (None) 38.887210000000000 -77.008500000000000 32619
Tue May 20 00:00:00 GMT 2014 polis American linden Tilia americana Flowers (Late) 38.887210000000000 -77.008500000000000 32620
Tue May 20 00:00:00 GMT 2014 polis American linden Tilia americana Fruit (None) 38.887210000000000 -77.008500000000000 32621
Mon May 19 00:00:00 GMT 2014 JESD American linden Tilia americana All Leaves Unfolded 39.995900000000000 -105.095000000000000 32589
Mon May 05 00:00:00 GMT 2014 cms2014 American linden Tilia americana Bud Burst 42.316790000000000 -71.084730000000000 32797
Tue Mar 18 00:00:00 GMT 2014 cms2014 American linden Tilia americana First Leaf 42.316790000000000 -71.084730000000000 32798
Mon May 05 00:00:00 GMT 2014 cms2014 American linden Tilia americana All Leaves Unfolded 42.316790000000000 -71.084730000000000 32799
Tue Mar 18 00:00:00 GMT 2014 cms2014 American linden Tilia americana First Flower 42.316790000000000 -71.084730000000000 32800
Tue Mar 18 00:00:00 GMT 2014 cms2014 American linden Tilia americana Full Flower 42.316790000000000 -71.084730000000000 32801
Mon May 05 00:00:00 GMT 2014 cms2014 American linden Tilia americana First Ripe Fruit 42.316790000000000 -71.084730000000000 32802
Tue May 20 00:00:00 GMT 2014 cms2014 American linden Tilia americana Full Fruiting 42.316790000000000 -71.084730000000000 32803
Tue Oct 01 00:00:00 GMT 2013 cms2014 American linden Tilia americana 50% Color 42.316790000000000 -71.084730000000000 32804
Tue Oct 01 00:00:00 GMT 2013 cms2014 American linden Tilia americana 50% Leaf Fall 42.316790000000000 -71.084730000000000 32805
Tue Oct 01 00:00:00 GMT 2013 cms2014 American linden Tilia americana Leaves Unfolding (None) 42.316790000000000 -71.084730000000000 32787
Tue Oct 01 00:00:00 GMT 2013 cms2014 American linden Tilia americana Leaves Changing Color (Middle) 42.316790000000000 -71.084730000000000 32788
Tue Oct 01 00:00:00 GMT 2013 cms2014 American linden Tilia americana Leaves Dropping (Middle) 42.316790000000000 -71.084730000000000 32789
Tue Oct 01 00:00:00 GMT 2013 cms2014 American linden Tilia americana Flowers (None) 42.316790000000000 -71.084730000000000 32790
Tue Oct 01 00:00:00 GMT 2013 cms2014 American linden Tilia americana Fruit (Early) 42.316790000000000 -71.084730000000000 32791
Sat Apr 12 00:00:00 GMT 2014 tuckerasso American linden Tilia americana First Leaf 37.231600000000000 -76.663600000000000 32898
Wed Apr 16 00:00:00 GMT 2014 tuckerasso American linden Tilia americana All Leaves Unfolded 37.231600000000000 -76.663600000000000 32899
Wed May 07 00:00:00 GMT 2014 tuckerasso American linden Tilia americana Full Flower 37.231600000000000 -76.663600000000000 32900
Sat May 10 00:00:00 GMT 2014 ecm American linden Tilia americana First Leaf 42.056500000000000 -80.103660000000000 34217
Tue Jun 10 00:00:00 GMT 2014 ecm American linden Tilia americana All Leaves Unfolded 42.056500000000000 -80.103660000000000 34218
Thu Jul 31 00:00:00 GMT 2014 bkapley American linden Tilia americana Leaves Unfolding (None) 41.328250000000000 -81.493820000000000 34859
Thu Jul 31 00:00:00 GMT 2014 bkapley American linden Tilia americana Leaves Changing Color (None) 41.328250000000000 -81.493820000000000 34860
Thu Jul 31 00:00:00 GMT 2014 bkapley American linden Tilia americana Leaves Dropping (None) 41.328250000000000 -81.493820000000000 34861
Thu Jul 31 00:00:00 GMT 2014 bkapley American linden Tilia americana Flowers (None) 41.328250000000000 -81.493820000000000 34862
Thu Jul 31 00:00:00 GMT 2014 bkapley American linden Tilia americana Fruit (Early) 41.328250000000000 -81.493820000000000 34863
Tue Jun 24 00:00:00 GMT 2014 cmi232 American linden Tilia americana Leaves Unfolding (Late) 40.016145000000000 -105.244968000000000 35019
Tue Jun 24 00:00:00 GMT 2014 cmi232 American linden Tilia americana Leaves Changing Color (None) 40.016145000000000 -105.244968000000000 35020
Tue Jun 24 00:00:00 GMT 2014 cmi232 American linden Tilia americana Leaves Dropping (None) 40.016145000000000 -105.244968000000000 35021
Tue Jun 24 00:00:00 GMT 2014 cmi232 American linden Tilia americana Flowers (Middle) 40.016145000000000 -105.244968000000000 35022
Tue Jun 24 00:00:00 GMT 2014 cmi232 American linden Tilia americana Fruit (None) 40.016145000000000 -105.244968000000000 35023
Sun Oct 19 00:00:00 GMT 2014 calichase3 American linden Tilia americana Leaves Unfolding (None) 38.984466000000000 -76.942298000000000 39022
Sun Oct 19 00:00:00 GMT 2014 calichase3 American linden Tilia americana Leaves Changing Color (Early) 38.984466000000000 -76.942298000000000 39023
Sun Oct 19 00:00:00 GMT 2014 calichase3 American linden Tilia americana Leaves Dropping (Early) 38.984466000000000 -76.942298000000000 39024
Sun Oct 19 00:00:00 GMT 2014 calichase3 American linden Tilia americana Flowers (None) 38.984466000000000 -76.942298000000000 39025
Sun Oct 19 00:00:00 GMT 2014 calichase3 American linden Tilia americana Fruit (Late) 38.984466000000000 -76.942298000000000 39026
Wed Oct 08 00:00:00 GMT 2014 bahabri American linden Tilia americana Leaves Unfolding (None) 38.984345000000000 -76.942187000000000 39012
Wed Oct 08 00:00:00 GMT 2014 bahabri American linden Tilia americana Leaves Changing Color (Early) 38.984345000000000 -76.942187000000000 39013
Wed Oct 08 00:00:00 GMT 2014 bahabri American linden Tilia americana Leaves Dropping (None) 38.984345000000000 -76.942187000000000 39014
Wed Oct 08 00:00:00 GMT 2014 bahabri American linden Tilia americana Flowers (None) 38.984345000000000 -76.942187000000000 39015
Wed Oct 08 00:00:00 GMT 2014 bahabri American linden Tilia americana Fruit (None) 38.984345000000000 -76.942187000000000 39016
Sun Oct 19 00:00:00 GMT 2014 calichase3 American linden Tilia americana Leaves Unfolding (None) 38.984399000000000 -76.942341000000000 39017
Sun Oct 19 00:00:00 GMT 2014 calichase3 American linden Tilia americana Leaves Changing Color (Early) 38.984399000000000 -76.942341000000000 39018
Sun Oct 19 00:00:00 GMT 2014 calichase3 American linden Tilia americana Leaves Dropping (Early) 38.984399000000000 -76.942341000000000 39019
Sun Oct 19 00:00:00 GMT 2014 calichase3 American linden Tilia americana Flowers (None) 38.984399000000000 -76.942341000000000 39020
Sun Oct 19 00:00:00 GMT 2014 calichase3 American linden Tilia americana Fruit (Late) 38.984399000000000 -76.942341000000000 39021
Sun Oct 26 00:00:00 GMT 2014 calichase3 American linden Tilia americana Leaves Unfolding (None) 38.984399000000000 -76.942127000000000 39524
Sun Oct 26 00:00:00 GMT 2014 calichase3 American linden Tilia americana Leaves Changing Color (Middle) 38.984399000000000 -76.942127000000000 39525
Sun Oct 26 00:00:00 GMT 2014 calichase3 American linden Tilia americana Leaves Dropping (Early) 38.984399000000000 -76.942127000000000 39526
Sun Oct 26 00:00:00 GMT 2014 calichase3 American linden Tilia americana Flowers (Late) 38.984399000000000 -76.942127000000000 39527
Sun Oct 26 00:00:00 GMT 2014 calichase3 American linden Tilia americana Fruit (Late) 38.984399000000000 -76.942127000000000 39528
Mon Nov 03 00:00:00 GMT 2014 calichase3 American linden Tilia americana Leaves Unfolding (Late) 38.984499000000000 -76.942470000000000 39828
Mon Nov 03 00:00:00 GMT 2014 calichase3 American linden Tilia americana Leaves Changing Color (Middle) 38.984499000000000 -76.942470000000000 39829
Mon Nov 03 00:00:00 GMT 2014 calichase3 American linden Tilia americana Leaves Dropping (Middle) 38.984499000000000 -76.942470000000000 39830
Mon Nov 03 00:00:00 GMT 2014 calichase3 American linden Tilia americana Flowers (Late) 38.984499000000000 -76.942470000000000 39831
Mon Nov 03 00:00:00 GMT 2014 calichase3 American linden Tilia americana Fruit (Late) 38.984499000000000 -76.942470000000000 39832
Mon Nov 10 00:00:00 GMT 2014 calichase3 American linden Tilia americana Leaves Unfolding (Late) 38.984399000000000 -76.942127000000000 40207
Mon Nov 10 00:00:00 GMT 2014 calichase3 American linden Tilia americana Leaves Changing Color (Late) 38.984399000000000 -76.942127000000000 40208
Mon Nov 10 00:00:00 GMT 2014 calichase3 American linden Tilia americana Leaves Dropping (Middle) 38.984399000000000 -76.942127000000000 40209
Mon Nov 10 00:00:00 GMT 2014 calichase3 American linden Tilia americana Flowers (Late) 38.984399000000000 -76.942127000000000 40210
Mon Nov 10 00:00:00 GMT 2014 calichase3 American linden Tilia americana Fruit (Late) 38.984399000000000 -76.942127000000000 40211
Wed Nov 19 00:00:00 GMT 2014 calichase3 American linden Tilia americana Leaves Unfolding (Late) 38.984432000000000 -76.941955000000000 41046
Wed Nov 19 00:00:00 GMT 2014 calichase3 American linden Tilia americana Leaves Changing Color (Late) 38.984432000000000 -76.941955000000000 41047
Wed Nov 19 00:00:00 GMT 2014 calichase3 American linden Tilia americana Leaves Dropping (Late) 38.984432000000000 -76.941955000000000 41048
Wed Nov 19 00:00:00 GMT 2014 calichase3 American linden Tilia americana Flowers (Late) 38.984432000000000 -76.941955000000000 41049
Wed Nov 19 00:00:00 GMT 2014 calichase3 American linden Tilia americana Fruit (Late) 38.984432000000000 -76.941955000000000 41050
Tue Nov 25 00:00:00 GMT 2014 calichase3 American linden Tilia americana Leaves Unfolding (Late) 38.984432000000000 -76.941955000000000 41931
Tue Nov 25 00:00:00 GMT 2014 calichase3 American linden Tilia americana Leaves Changing Color (Late) 38.984432000000000 -76.941955000000000 41932
Tue Nov 25 00:00:00 GMT 2014 calichase3 American linden Tilia americana Leaves Dropping (Late) 38.984432000000000 -76.941955000000000 41933
Tue Nov 25 00:00:00 GMT 2014 calichase3 American linden Tilia americana Flowers (Late) 38.984432000000000 -76.941955000000000 41934
Tue Nov 25 00:00:00 GMT 2014 calichase3 American linden Tilia americana Fruit (Late) 38.984432000000000 -76.941955000000000 41935
Tue Dec 02 00:00:00 GMT 2014 calichase3 American linden Tilia americana Leaves Unfolding (Late) 38.984399000000000 -76.942341000000000 42405
Tue Dec 02 00:00:00 GMT 2014 calichase3 American linden Tilia americana Leaves Changing Color (Late) 38.984399000000000 -76.942341000000000 42406
Tue Dec 02 00:00:00 GMT 2014 calichase3 American linden Tilia americana Leaves Dropping (Late) 38.984399000000000 -76.942341000000000 42407
Tue Dec 02 00:00:00 GMT 2014 calichase3 American linden Tilia americana Flowers (Late) 38.984399000000000 -76.942341000000000 42408
Tue Dec 02 00:00:00 GMT 2014 calichase3 American linden Tilia americana Fruit (Late) 38.984399000000000 -76.942341000000000 42409
Wed Apr 08 00:00:00 GMT 2015 andemeye American linden Tilia americana Leaves Unfolding (Early) 41.665660000000000 -86.221960000000000 45974
Wed Apr 08 00:00:00 GMT 2015 andemeye American linden Tilia americana Leaves Changing Color (None) 41.665660000000000 -86.221960000000000 45975
Wed Apr 08 00:00:00 GMT 2015 andemeye American linden Tilia americana Leaves Dropping (None) 41.665660000000000 -86.221960000000000 45976
Wed Apr 08 00:00:00 GMT 2015 andemeye American linden Tilia americana Flowers (None) 41.665660000000000 -86.221960000000000 45977
Wed Apr 08 00:00:00 GMT 2015 andemeye American linden Tilia americana Fruit (None) 41.665660000000000 -86.221960000000000 45978
Sun Apr 19 00:00:00 GMT 2015 fodigbo American linden Tilia americana Leaves Unfolding (Middle) 38.922680000000000 -77.019440000000000 47551
Sun Apr 19 00:00:00 GMT 2015 fodigbo American linden Tilia americana Leaves Changing Color (Middle) 38.922680000000000 -77.019440000000000 47552
Sun Apr 19 00:00:00 GMT 2015 fodigbo American linden Tilia americana Leaves Dropping (None) 38.922680000000000 -77.019440000000000 47553
Sun Apr 19 00:00:00 GMT 2015 fodigbo American linden Tilia americana Flowers (None) 38.922680000000000 -77.019440000000000 47554
Sun Apr 19 00:00:00 GMT 2015 fodigbo American linden Tilia americana Fruit (Early) 38.922680000000000 -77.019440000000000 47555
Fri Apr 24 00:00:00 GMT 2015 lanceh5 American linden Tilia americana Leaves Unfolding (Late) 37.385400000000000 -118.414570000000000 47670
Fri Apr 24 00:00:00 GMT 2015 lanceh5 American linden Tilia americana Leaves Changing Color (None) 37.385400000000000 -118.414570000000000 47671
Fri Apr 24 00:00:00 GMT 2015 lanceh5 American linden Tilia americana Leaves Dropping (None) 37.385400000000000 -118.414570000000000 47672
Fri Apr 24 00:00:00 GMT 2015 lanceh5 American linden Tilia americana Flowers (Middle) 37.385400000000000 -118.414570000000000 47673
Fri Apr 24 00:00:00 GMT 2015 lanceh5 American linden Tilia americana Fruit (Early) 37.385400000000000 -118.414570000000000 47674
Thu Apr 16 00:00:00 GMT 2015 Backerman American linden Tilia americana Leaves Unfolding (None) 40.000000000000000 -100.000000000000000 47869
Thu Apr 16 00:00:00 GMT 2015 Backerman American linden Tilia americana Leaves Changing Color (None) 40.000000000000000 -100.000000000000000 47870
Thu Apr 16 00:00:00 GMT 2015 Backerman American linden Tilia americana Leaves Dropping (None) 40.000000000000000 -100.000000000000000 47871
Thu Apr 16 00:00:00 GMT 2015 Backerman American linden Tilia americana Flowers (Early) 40.000000000000000 -100.000000000000000 47872
Thu Apr 16 00:00:00 GMT 2015 Backerman American linden Tilia americana Fruit (None) 40.000000000000000 -100.000000000000000 47873
Tue Mar 31 00:00:00 GMT 2015 Backerman American linden Tilia americana Leaves Unfolding (None) 40.000000000000000 -100.000000000000000 47864
Tue Mar 31 00:00:00 GMT 2015 Backerman American linden Tilia americana Leaves Changing Color (None) 40.000000000000000 -100.000000000000000 47865
Tue Mar 31 00:00:00 GMT 2015 Backerman American linden Tilia americana Leaves Dropping (None) 40.000000000000000 -100.000000000000000 47866
Tue Mar 31 00:00:00 GMT 2015 Backerman American linden Tilia americana Flowers (None) 40.000000000000000 -100.000000000000000 47867
Tue Mar 31 00:00:00 GMT 2015 Backerman American linden Tilia americana Fruit (None) 40.000000000000000 -100.000000000000000 47868
Sun Apr 26 00:00:00 GMT 2015 Backerman American linden Tilia americana Leaves Unfolding (None) 40.000000000000000 -100.000000000000000 47874
Sun Apr 26 00:00:00 GMT 2015 Backerman American linden Tilia americana Leaves Changing Color (Early) 40.000000000000000 -100.000000000000000 47875
Sun Apr 26 00:00:00 GMT 2015 Backerman American linden Tilia americana Leaves Dropping (None) 40.000000000000000 -100.000000000000000 47876
Sun Apr 26 00:00:00 GMT 2015 Backerman American linden Tilia americana Flowers (Middle) 40.000000000000000 -100.000000000000000 47877
Sun Apr 26 00:00:00 GMT 2015 Backerman American linden Tilia americana Fruit (None) 40.000000000000000 -100.000000000000000 47878
Tue Apr 28 00:00:00 GMT 2015 JayDee970 American linden Tilia americana Bud Burst 40.462100000000000 -105.036000000000000 48831
Fri May 01 00:00:00 GMT 2015 JayDee970 American linden Tilia americana First Leaf 40.462100000000000 -105.036000000000000 48840
Mon May 04 00:00:00 GMT 2015 JayDee970 American linden Tilia americana All Leaves Unfolded 40.462100000000000 -105.036000000000000 49114
Thu May 07 00:00:00 GMT 2015 mr14 American linden Tilia americana Bud Burst 40.135110000000000 -105.149840000000000 49546
Thu Apr 30 00:00:00 GMT 2015 mr14 American linden Tilia americana First Leaf 40.135110000000000 -105.149840000000000 49547
Sat May 02 00:00:00 GMT 2015 mr14 American linden Tilia americana All Leaves Unfolded 40.135110000000000 -105.149840000000000 49548
Tue May 19 00:00:00 GMT 2015 JayDee970 American linden Tilia americana Full Flower 40.462100000000000 -105.036000000000000 50846
Tue Jun 23 00:00:00 GMT 2015 allib001 American linden Tilia americana Full Flower 45.053700000000000 -92.812700000000000 51428
Thu May 21 00:00:00 GMT 2015 jmichalsbrown American linden Tilia americana First Flower 42.080452000000000 -71.044378000000000 51741
Fri Jun 26 00:00:00 GMT 2015 jmichalsbrown American linden Tilia americana Full Flower 42.080452000000000 -71.044378000000000 51742
Thu Oct 08 00:00:00 GMT 2015 TC_HRT145Observer1 American linden Tilia americana Leaves Unfolding (Late) 41.927740000000000 -87.799020000000000 54079
Thu Oct 08 00:00:00 GMT 2015 TC_HRT145Observer1 American linden Tilia americana Leaves Changing Color (Early) 41.927740000000000 -87.799020000000000 54080
Thu Oct 08 00:00:00 GMT 2015 TC_HRT145Observer1 American linden Tilia americana Leaves Dropping (None) 41.927740000000000 -87.799020000000000 54081
Thu Oct 08 00:00:00 GMT 2015 TC_HRT145Observer1 American linden Tilia americana Flowers (None) 41.927740000000000 -87.799020000000000 54082
Thu Oct 08 00:00:00 GMT 2015 TC_HRT145Observer1 American linden Tilia americana Fruit (None) 41.927740000000000 -87.799020000000000 54083
Thu Oct 08 00:00:00 GMT 2015 allib001 American linden Tilia americana 50% Color 45.053700000000000 -92.812700000000000 54196
Wed Oct 14 00:00:00 GMT 2015 TC_HRT145Observer1 American linden Tilia americana Leaves Unfolding (Late) 41.933170000000000 -87.798860000000000 54274
Wed Oct 14 00:00:00 GMT 2015 TC_HRT145Observer1 American linden Tilia americana Leaves Changing Color (Middle) 41.933170000000000 -87.798860000000000 54275
Wed Oct 14 00:00:00 GMT 2015 TC_HRT145Observer1 American linden Tilia americana Leaves Dropping (Early) 41.933170000000000 -87.798860000000000 54276
Wed Oct 14 00:00:00 GMT 2015 TC_HRT145Observer1 American linden Tilia americana Flowers (None) 41.933170000000000 -87.798860000000000 54277
Wed Oct 14 00:00:00 GMT 2015 TC_HRT145Observer1 American linden Tilia americana Fruit (Late) 41.933170000000000 -87.798860000000000 54278
Thu Oct 22 00:00:00 GMT 2015 allib001 American linden Tilia americana 50% Leaf Fall 45.053700000000000 -92.812700000000000 54930
Mon Nov 02 00:00:00 GMT 2015 AlanaVargas American linden Tilia americana Leaves Unfolding (Late) 44.693100000000000 -73.562080000000000 55321
Mon Nov 02 00:00:00 GMT 2015 AlanaVargas American linden Tilia americana Leaves Changing Color (Early) 44.693100000000000 -73.562080000000000 55322
Mon Nov 02 00:00:00 GMT 2015 AlanaVargas American linden Tilia americana Leaves Dropping (Middle) 44.693100000000000 -73.562080000000000 55323
Mon Nov 02 00:00:00 GMT 2015 AlanaVargas American linden Tilia americana Flowers (None) 44.693100000000000 -73.562080000000000 55324
Mon Nov 02 00:00:00 GMT 2015 AlanaVargas American linden Tilia americana Fruit (None) 44.693100000000000 -73.562080000000000 55325
Mon Nov 02 00:00:00 GMT 2015 rshuman American linden Tilia americana Leaves Unfolding (None) 44.720440000000000 -73.718050000000000 56096
Mon Nov 02 00:00:00 GMT 2015 rshuman American linden Tilia americana Leaves Changing Color (Late) 44.720440000000000 -73.718050000000000 56098
Mon Nov 02 00:00:00 GMT 2015 rshuman American linden Tilia americana Leaves Dropping (Late) 44.720440000000000 -73.718050000000000 56101
Mon Nov 02 00:00:00 GMT 2015 rshuman American linden Tilia americana Flowers (None) 44.720440000000000 -73.718050000000000 56102
Mon Nov 02 00:00:00 GMT 2015 rshuman American linden Tilia americana Fruit (None) 44.720440000000000 -73.718050000000000 56104
Mon Nov 02 00:00:00 GMT 2015 rshuman American linden Tilia americana Leaves Unfolding (Late) 44.665430000000000 -73.729870000000000 56357
Mon Nov 02 00:00:00 GMT 2015 rshuman American linden Tilia americana Leaves Changing Color (Early) 44.665430000000000 -73.729870000000000 56358
Mon Nov 02 00:00:00 GMT 2015 rshuman American linden Tilia americana Leaves Dropping (Middle) 44.665430000000000 -73.729870000000000 56359
Mon Nov 02 00:00:00 GMT 2015 rshuman American linden Tilia americana Flowers (None) 44.665430000000000 -73.729870000000000 56360
Mon Nov 02 00:00:00 GMT 2015 rshuman American linden Tilia americana Fruit (None) 44.665430000000000 -73.729870000000000 56361
Wed Nov 18 00:00:00 GMT 2015 lcyliax American linden Tilia americana Leaves Unfolding (Late) 39.160210000000000 -86.522840000000000 57360
Wed Nov 18 00:00:00 GMT 2015 lcyliax American linden Tilia americana Leaves Changing Color (Late) 39.160210000000000 -86.522840000000000 57361
Wed Nov 18 00:00:00 GMT 2015 lcyliax American linden Tilia americana Leaves Dropping (Late) 39.160210000000000 -86.522840000000000 57362
Wed Nov 18 00:00:00 GMT 2015 lcyliax American linden Tilia americana Flowers (None) 39.160210000000000 -86.522840000000000 57363
Wed Nov 18 00:00:00 GMT 2015 lcyliax American linden Tilia americana Fruit (None) 39.160210000000000 -86.522840000000000 57364
Thu Sep 03 00:00:00 GMT 2015 el22 American linden Tilia americana Bud Burst 39.154580000000000 -86.493300000000000 57502
Mon Oct 05 00:00:00 GMT 2015 el22 American linden Tilia americana 50% Color 39.154580000000000 -86.493300000000000 57503
Mon Oct 19 00:00:00 GMT 2015 el22 American linden Tilia americana 50% Leaf Fall 39.154580000000000 -86.493300000000000 57504
Mon Sep 28 00:00:00 GMT 2015 robinv1_Washington_College_reporter59 American linden Tilia americana Leaves Unfolding (None) 39.218870000000000 -76.069000000000000 60066
Mon Sep 28 00:00:00 GMT 2015 robinv1_Washington_College_reporter59 American linden Tilia americana Leaves Changing Color (None) 39.218870000000000 -76.069000000000000 60067
Mon Sep 28 00:00:00 GMT 2015 robinv1_Washington_College_reporter59 American linden Tilia americana Leaves Dropping (None) 39.218870000000000 -76.069000000000000 60068
Mon Sep 28 00:00:00 GMT 2015 robinv1_Washington_College_reporter59 American linden Tilia americana Flowers (None) 39.218870000000000 -76.069000000000000 60069
Mon Sep 28 00:00:00 GMT 2015 robinv1_Washington_College_reporter59 American linden Tilia americana Fruit (None) 39.218870000000000 -76.069000000000000 60070
Wed Sep 30 00:00:00 GMT 2015 robinv1_Washington_College_reporter56 American linden Tilia americana Leaves Unfolding (Late) 39.219454000000000 -76.068757000000000 60276
Wed Sep 30 00:00:00 GMT 2015 robinv1_Washington_College_reporter56 American linden Tilia americana Leaves Changing Color (Middle) 39.219454000000000 -76.068757000000000 60277
Wed Sep 30 00:00:00 GMT 2015 robinv1_Washington_College_reporter56 American linden Tilia americana Leaves Dropping (Middle) 39.219454000000000 -76.068757000000000 60278
Wed Sep 30 00:00:00 GMT 2015 robinv1_Washington_College_reporter56 American linden Tilia americana Flowers (Late) 39.219454000000000 -76.068757000000000 60279
Wed Sep 30 00:00:00 GMT 2015 robinv1_Washington_College_reporter56 American linden Tilia americana Fruit (Late) 39.219454000000000 -76.068757000000000 60280
Sat Oct 10 00:00:00 GMT 2015 robinv1_Washington_College_reporter56 American linden Tilia americana Leaves Unfolding (Late) 39.219454000000000 -76.068757000000000 60286
Sat Oct 10 00:00:00 GMT 2015 robinv1_Washington_College_reporter56 American linden Tilia americana Leaves Changing Color (Middle) 39.219454000000000 -76.068757000000000 60287
Sat Oct 10 00:00:00 GMT 2015 robinv1_Washington_College_reporter56 American linden Tilia americana Leaves Dropping (Middle) 39.219454000000000 -76.068757000000000 60288
Sat Oct 10 00:00:00 GMT 2015 robinv1_Washington_College_reporter56 American linden Tilia americana Flowers (Late) 39.219454000000000 -76.068757000000000 60289
Sat Oct 10 00:00:00 GMT 2015 robinv1_Washington_College_reporter56 American linden Tilia americana Fruit (Late) 39.219454000000000 -76.068757000000000 60290
Wed Oct 14 00:00:00 GMT 2015 robinv1_Washington_College_reporter56 American linden Tilia americana Leaves Unfolding (Late) 39.219454000000000 -76.068757000000000 60291
Wed Oct 14 00:00:00 GMT 2015 robinv1_Washington_College_reporter56 American linden Tilia americana Leaves Changing Color (Middle) 39.219454000000000 -76.068757000000000 60292
Wed Oct 14 00:00:00 GMT 2015 robinv1_Washington_College_reporter56 American linden Tilia americana Leaves Dropping (Middle) 39.219454000000000 -76.068757000000000 60293
Wed Oct 14 00:00:00 GMT 2015 robinv1_Washington_College_reporter56 American linden Tilia americana Flowers (Late) 39.219454000000000 -76.068757000000000 60294
Wed Oct 14 00:00:00 GMT 2015 robinv1_Washington_College_reporter56 American linden Tilia americana Fruit (Late) 39.219454000000000 -76.068757000000000 60295
Thu Oct 22 00:00:00 GMT 2015 robinv1_Washington_College_reporter56 American linden Tilia americana Leaves Unfolding (Late) 39.219454000000000 -76.068757000000000 60311
Thu Oct 22 00:00:00 GMT 2015 robinv1_Washington_College_reporter56 American linden Tilia americana Leaves Changing Color (Middle) 39.219454000000000 -76.068757000000000 60312
Thu Oct 22 00:00:00 GMT 2015 robinv1_Washington_College_reporter56 American linden Tilia americana Leaves Dropping (Middle) 39.219454000000000 -76.068757000000000 60313
Thu Oct 22 00:00:00 GMT 2015 robinv1_Washington_College_reporter56 American linden Tilia americana Flowers (Late) 39.219454000000000 -76.068757000000000 60314
Thu Oct 22 00:00:00 GMT 2015 robinv1_Washington_College_reporter56 American linden Tilia americana Fruit (Late) 39.219454000000000 -76.068757000000000 60315
Fri Oct 30 00:00:00 GMT 2015 robinv1_Washington_College_reporter56 American linden Tilia americana Leaves Unfolding (Late) 39.219454000000000 -76.068757000000000 60321
Fri Oct 30 00:00:00 GMT 2015 robinv1_Washington_College_reporter56 American linden Tilia americana Leaves Changing Color (Late) 39.219454000000000 -76.068757000000000 60322
Fri Oct 30 00:00:00 GMT 2015 robinv1_Washington_College_reporter56 American linden Tilia americana Leaves Dropping (Middle) 39.219454000000000 -76.068757000000000 60323
Fri Oct 30 00:00:00 GMT 2015 robinv1_Washington_College_reporter56 American linden Tilia americana Flowers (Late) 39.219454000000000 -76.068757000000000 60324
Fri Oct 30 00:00:00 GMT 2015 robinv1_Washington_College_reporter56 American linden Tilia americana Fruit (Late) 39.219454000000000 -76.068757000000000 60325
Fri Nov 06 00:00:00 GMT 2015 robinv1_Washington_College_reporter56 American linden Tilia americana Leaves Unfolding (Late) 39.219454000000000 -76.068757000000000 60338
Fri Nov 06 00:00:00 GMT 2015 robinv1_Washington_College_reporter56 American linden Tilia americana Leaves Changing Color (Late) 39.219454000000000 -76.068757000000000 60340
Fri Nov 06 00:00:00 GMT 2015 robinv1_Washington_College_reporter56 American linden Tilia americana Leaves Dropping (Middle) 39.219454000000000 -76.068757000000000 60342
Fri Nov 06 00:00:00 GMT 2015 robinv1_Washington_College_reporter56 American linden Tilia americana Flowers (Late) 39.219454000000000 -76.068757000000000 60344
Fri Nov 06 00:00:00 GMT 2015 robinv1_Washington_College_reporter56 American linden Tilia americana Fruit (Late) 39.219454000000000 -76.068757000000000 60345
Fri Nov 13 00:00:00 GMT 2015 robinv1_Washington_College_reporter56 American linden Tilia americana Leaves Unfolding (Late) 39.219454000000000 -76.068757000000000 60346
Fri Nov 13 00:00:00 GMT 2015 robinv1_Washington_College_reporter56 American linden Tilia americana Leaves Changing Color (Late) 39.219454000000000 -76.068757000000000 60347
Fri Nov 13 00:00:00 GMT 2015 robinv1_Washington_College_reporter56 American linden Tilia americana Leaves Dropping (Late) 39.219454000000000 -76.068757000000000 60348
Fri Nov 13 00:00:00 GMT 2015 robinv1_Washington_College_reporter56 American linden Tilia americana Flowers (Late) 39.219454000000000 -76.068757000000000 60349
Fri Nov 13 00:00:00 GMT 2015 robinv1_Washington_College_reporter56 American linden Tilia americana Fruit (Late) 39.219454000000000 -76.068757000000000 60350
Sat Dec 05 00:00:00 GMT 2015 robinv1_Washington_College_reporter56 American linden Tilia americana Leaves Unfolding (Late) 39.219454000000000 -76.068757000000000 60356
Sat Dec 05 00:00:00 GMT 2015 robinv1_Washington_College_reporter56 American linden Tilia americana Leaves Changing Color (Late) 39.219454000000000 -76.068757000000000 60357
Sat Dec 05 00:00:00 GMT 2015 robinv1_Washington_College_reporter56 American linden Tilia americana Leaves Dropping (Late) 39.219454000000000 -76.068757000000000 60358
Sat Dec 05 00:00:00 GMT 2015 robinv1_Washington_College_reporter56 American linden Tilia americana Flowers (Late) 39.219454000000000 -76.068757000000000 60359
Sat Dec 05 00:00:00 GMT 2015 robinv1_Washington_College_reporter56 American linden Tilia americana Fruit (Late) 39.219454000000000 -76.068757000000000 60360
Mon Oct 05 00:00:00 GMT 2015 robinv1_Washington_College_reporter59 American linden Tilia americana Leaves Unfolding (None) 39.218870000000000 -76.069000000000000 60371
Mon Oct 05 00:00:00 GMT 2015 robinv1_Washington_College_reporter59 American linden Tilia americana Leaves Changing Color (None) 39.218870000000000 -76.069000000000000 60372
Mon Oct 05 00:00:00 GMT 2015 robinv1_Washington_College_reporter59 American linden Tilia americana Leaves Dropping (None) 39.218870000000000 -76.069000000000000 60373
Mon Oct 05 00:00:00 GMT 2015 robinv1_Washington_College_reporter59 American linden Tilia americana Flowers (None) 39.218870000000000 -76.069000000000000 60374
Mon Oct 05 00:00:00 GMT 2015 robinv1_Washington_College_reporter59 American linden Tilia americana Fruit (None) 39.218870000000000 -76.069000000000000 60375
Mon Oct 12 00:00:00 GMT 2015 robinv1_Washington_College_reporter59 American linden Tilia americana Leaves Unfolding (Early) 39.218870000000000 -76.069000000000000 60391
Mon Oct 12 00:00:00 GMT 2015 robinv1_Washington_College_reporter59 American linden Tilia americana Leaves Changing Color (Early) 39.218870000000000 -76.069000000000000 60392
Mon Oct 12 00:00:00 GMT 2015 robinv1_Washington_College_reporter59 American linden Tilia americana Leaves Dropping (Early) 39.218870000000000 -76.069000000000000 60393
Mon Oct 12 00:00:00 GMT 2015 robinv1_Washington_College_reporter59 American linden Tilia americana Flowers (None) 39.218870000000000 -76.069000000000000 60394
Mon Oct 12 00:00:00 GMT 2015 robinv1_Washington_College_reporter59 American linden Tilia americana Fruit (None) 39.218870000000000 -76.069000000000000 60395
Mon Oct 19 00:00:00 GMT 2015 robinv1_Washington_College_reporter59 American linden Tilia americana Leaves Unfolding (Early) 39.218870000000000 -76.069000000000000 60406
Mon Oct 19 00:00:00 GMT 2015 robinv1_Washington_College_reporter59 American linden Tilia americana Leaves Changing Color (Early) 39.218870000000000 -76.069000000000000 60407
Mon Oct 19 00:00:00 GMT 2015 robinv1_Washington_College_reporter59 American linden Tilia americana Leaves Dropping (Early) 39.218870000000000 -76.069000000000000 60408
Mon Oct 19 00:00:00 GMT 2015 robinv1_Washington_College_reporter59 American linden Tilia americana Flowers (None) 39.218870000000000 -76.069000000000000 60409
Mon Oct 19 00:00:00 GMT 2015 robinv1_Washington_College_reporter59 American linden Tilia americana Fruit (None) 39.218870000000000 -76.069000000000000 60410
Mon Oct 26 00:00:00 GMT 2015 robinv1_Washington_College_reporter59 American linden Tilia americana Leaves Unfolding (Early) 39.218870000000000 -76.069000000000000 60421
Mon Oct 26 00:00:00 GMT 2015 robinv1_Washington_College_reporter59 American linden Tilia americana Leaves Changing Color (Early) 39.218870000000000 -76.069000000000000 60422
Mon Oct 26 00:00:00 GMT 2015 robinv1_Washington_College_reporter59 American linden Tilia americana Leaves Dropping (Early) 39.218870000000000 -76.069000000000000 60423
Mon Oct 26 00:00:00 GMT 2015 robinv1_Washington_College_reporter59 American linden Tilia americana Flowers (None) 39.218870000000000 -76.069000000000000 60424
Mon Oct 26 00:00:00 GMT 2015 robinv1_Washington_College_reporter59 American linden Tilia americana Fruit (None) 39.218870000000000 -76.069000000000000 60425
Mon Nov 02 00:00:00 GMT 2015 robinv1_Washington_College_reporter59 American linden Tilia americana Leaves Unfolding (Middle) 39.218870000000000 -76.069000000000000 60426
Mon Nov 02 00:00:00 GMT 2015 robinv1_Washington_College_reporter59 American linden Tilia americana Leaves Changing Color (Middle) 39.218870000000000 -76.069000000000000 60427
Mon Nov 02 00:00:00 GMT 2015 robinv1_Washington_College_reporter59 American linden Tilia americana Leaves Dropping (Early) 39.218870000000000 -76.069000000000000 60428
Mon Nov 02 00:00:00 GMT 2015 robinv1_Washington_College_reporter59 American linden Tilia americana Flowers (None) 39.218870000000000 -76.069000000000000 60429
Mon Nov 02 00:00:00 GMT 2015 robinv1_Washington_College_reporter59 American linden Tilia americana Fruit (None) 39.218870000000000 -76.069000000000000 60430
Mon Nov 09 00:00:00 GMT 2015 robinv1_Washington_College_reporter59 American linden Tilia americana Leaves Unfolding (Middle) 39.218870000000000 -76.069000000000000 60431
Mon Nov 09 00:00:00 GMT 2015 robinv1_Washington_College_reporter59 American linden Tilia americana Leaves Changing Color (Middle) 39.218870000000000 -76.069000000000000 60432
Mon Nov 09 00:00:00 GMT 2015 robinv1_Washington_College_reporter59 American linden Tilia americana Leaves Dropping (Middle) 39.218870000000000 -76.069000000000000 60433
Mon Nov 09 00:00:00 GMT 2015 robinv1_Washington_College_reporter59 American linden Tilia americana Flowers (None) 39.218870000000000 -76.069000000000000 60434
Mon Nov 09 00:00:00 GMT 2015 robinv1_Washington_College_reporter59 American linden Tilia americana Fruit (None) 39.218870000000000 -76.069000000000000 60435
Mon Nov 30 00:00:00 GMT 2015 robinv1_Washington_College_reporter59 American linden Tilia americana Leaves Unfolding (Late) 39.218870000000000 -76.069000000000000 60436
Mon Nov 30 00:00:00 GMT 2015 robinv1_Washington_College_reporter59 American linden Tilia americana Leaves Changing Color (Late) 39.218870000000000 -76.069000000000000 60437
Mon Nov 30 00:00:00 GMT 2015 robinv1_Washington_College_reporter59 American linden Tilia americana Leaves Dropping (Late) 39.218870000000000 -76.069000000000000 60438
Mon Nov 30 00:00:00 GMT 2015 robinv1_Washington_College_reporter59 American linden Tilia americana Flowers (None) 39.218870000000000 -76.069000000000000 60439
Mon Nov 30 00:00:00 GMT 2015 robinv1_Washington_College_reporter59 American linden Tilia americana Fruit (None) 39.218870000000000 -76.069000000000000 60440
Tue Jan 24 00:00:00 GMT 2017 mariepg123 American linden Tilia americana Leaves Unfolding (None) 39.790369000000000 -105.032457000000000 74529
Tue Jan 24 00:00:00 GMT 2017 mariepg123 American linden Tilia americana Leaves Changing Color (None) 39.790369000000000 -105.032457000000000 74530
Tue Jan 24 00:00:00 GMT 2017 mariepg123 American linden Tilia americana Leaves Dropping (None) 39.790369000000000 -105.032457000000000 74531
Tue Jan 24 00:00:00 GMT 2017 mariepg123 American linden Tilia americana Flowers (None) 39.790369000000000 -105.032457000000000 74532
Tue Jan 24 00:00:00 GMT 2017 mariepg123 American linden Tilia americana Fruit (None) 39.790369000000000 -105.032457000000000 74533
Thu Mar 23 00:00:00 GMT 2017 mariepg123 American linden Tilia americana Leaves Unfolding (None) 39.790426000000000 -105.031883000000000 76206
Thu Mar 23 00:00:00 GMT 2017 mariepg123 American linden Tilia americana Leaves Changing Color (None) 39.790426000000000 -105.031883000000000 76207
Thu Mar 23 00:00:00 GMT 2017 mariepg123 American linden Tilia americana Leaves Dropping (None) 39.790426000000000 -105.031883000000000 76208
Thu Mar 23 00:00:00 GMT 2017 mariepg123 American linden Tilia americana Flowers (None) 39.790426000000000 -105.031883000000000 76209
Thu Mar 23 00:00:00 GMT 2017 mariepg123 American linden Tilia americana Fruit (None) 39.790426000000000 -105.031883000000000 76210

*All downloadable materials require the free Adobe Reader.